Location: Adaghas
(31.2259°N, 9.0496°W)
Time: 02:55:27
(UTC+00:00)

Cosmos 1603 - Pass Details

Date: 18 September 2020
Orbit: 832 x 858 km, 71.0° (Epoch: 23 October)

Event Time Altitude Azimuth Distance (km) Brightness Sun altitude
Rises 20:08:31 0° 336° (NNW) 3,403 7.4 -20.1°
Reaches altitude 10° 20:10:59 10° 333° (NNW) 2,461 6.7 -20.6°
Maximum altitude 20:16:33 63° 253° (WSW) 929 4.1 -21.7°
Enters shadow 20:21:14 15° 175° (S) 2,125 5.6 -22.7°
